Regional Weather Roundup
Issued by NWS Newport/Morehead, NC

Current Version | Previous Version | Graphics & Text | Print | Product List | Glossary Off
Versions: 1 2 3 4 5 6 7 8 9 10 11 12 13 14 15 16 17 18 19 20 21 22 23 24 25 26 27 28 29 30 31 32 33 34 35 36 37 38 39 40 41 42 43 44 45 46 47 48 49 50

000
ASUS42 KMHX 250922
RWRMHX
WEATHER ROUNDUP FOR EASTERN NORTH CAROLINA
NATIONAL WEATHER SERVICE NEWPORT/MOREHEAD CITY NC
400 AM EST TUE NOV 25 2014

NOTE: "FAIR" INDICATES FEW OR NO CLOUDS BELOW 12,000 FEET
WITH NO SIGNIFICANT WEATHER AND/OR OBSTRUCTIONS TO VISIBILITY

NCZ015>017-031-032-045>047-102-103-251000-
NORTH COAST

CITY           SKY/WX    TMP DP  RH WIND       PRES   REMARKS
EDENTON        CLOUDY    64  60  87 SW6       29.97R
ELIZABETH CITY CLOUDY    66  60  81 S7        29.95S
KITTY HAWK     CLOUDY    62  60  93 SW6       29.96R
MANTEO         CLOUDY    56  55  96 S7        29.98R

$$

NCZ045>047-081-094-103-104-251000-
CENTRAL COAST

CITY           SKY/WX    TMP DP  RH WIND       PRES   REMARKS
FRISCO         CLOUDY    65  64  97 W12       29.98F
SWANQUARTER      N/A     61 N/A N/A SW10      29.94S

$$

NCZ095-097-098-100-101-251000-
SOUTHERN COAST

CITY           SKY/WX    TMP DP  RH WIND       PRES   REMARKS
BEAUFORT       CLOUDY    65  63  93 W6        29.99F
CEDAR ISLAND     N/A     64 N/A N/A SW9       30.00F
JACKSONVILLE   CLOUDY    63  62  97 SE3       29.97F
PINEY ISLAND   CLOUDY    69  63  81 SW8       29.98F
WILMINGTON     CLOUDY    65  62  90 CALM      29.96F


$$

NCZ011>013-027>030-043-044-078>080-089-090>093-098-251000-
COASTAL PLAIN

CITY           SKY/WX    TMP DP  RH WIND       PRES   REMARKS
AHOSKIE        CLOUDY    61  57  85 S5        29.96R
CLINTON        LGT RAIN  62  62 100 CALM      29.97S
ELIZABETHTOWN  CLOUDY    62  62 100 CALM      29.98R FOG
GOLDSBORO      CLOUDY    64  63  97 CALM      29.94F
GREENVILLE     CLOUDY    64  61  88 S5        29.98S
HAVELOCK       CLOUDY    66  62  87 SW9       30.00S
KENANSVILLE    CLOUDY    63  61  95 CALM      29.95F
KINSTON        LGT RAIN  64  61  89 S3        29.94F
NEW BERN       LGT RAIN  67  62  84 S6        29.99R
RICHLANDS      CLOUDY    63  57  82 CALM      29.97F
ROCKY MOUNT    CLOUDY    62  57  83 S3        29.95R
WASHINGTON     CLOUDY    65  60  85 SW5       29.98R
WHITEVILLE     CLOUDY    63  63 100 SW3       29.98R FOG

$$

AMZ130-135-150-152-154-156-158-170-250-252-270-ANZ085-086-088-633-658-670-251000-
MARINE OBSERVATIONS

STATION/POSITION TIME  TEMP    WIND        PRES    WAVE   SWELL
                       AIR SEA DIR/SP/G            HT/PER HT/PER
                 (UTC) (F)     (DEG/KT/KT) (MB)    (FT/S) (FT/S)
CHESAPEAKE LIGHT 0900   63     220/ 17/ 17 1014.1
64 E VA BEACH    0900   67 63  220/ 14/ 16 1013.8    7/ 9   7/ 9
DUCK             0900   63 58  210/ 10/ 13 1013.9
2 E DUCK         0900      58                N/A     4/ 9
10 NE DUCK       0900      59                N/A     5/ 9   2/11
OREGON INLET     0900   57 58  210/ 11/ 13 1014.9
13E OREGON INLT  0900      64                N/A     5/ 8   2/11
HATTERAS CG      0900   66 62  220/  9/ 14 1015.7
DIAMOND BUOY     0900   74     220/ 14/ 16 1015.2    6/ 8   5/ 8
17 S OCRACOKE    NOT AVBL
CAPE LOOKOUT     0900   67     210/  9/ 12 1015.3
BEAUFORT LAB     0900   65 58  270/  3/  6 1014.2
30 SE NEW RIVER  0900   70 69  180/  8/  8 1016.3    6/ 9   5/ 9
5 SE WRIGHTSVLE  0900   59 59  180/  4/  6 1013.8
225 S CAPE HAT   0757   75 73  190/ 14/ 17 1019.1    7/ 7   5/ 7
41 SE CHARLESTON 0900   73 74  140/  8/ 10 1014.6    7/ 9   7/ 9

$$


USA.gov is the U.S. government's official web portal to all federal, state and local government web resources and services.